Regional Weather Roundup
Issued by NWS Green Bay, WI

Home | Current Version | Previous Version | Text Only | Print | Product List | Glossary On
Versions: 1 2 3 4 5 6 7 8 9 10 11 12 13 14 15 16 17 18 19 20 21 22 23 24 25 26 27 28 29 30 31 32 33 34 35 36 37 38 39 40 41 42 43 44 45 46 47 48 49 50
000
ASUS43 KGRB 172011
RWRGRB

NORTH-CENTRAL AND NORTHEAST WISCONSIN REGIONAL WEATHER ROUNDUP
NATIONAL WEATHER SERVICE GREEN BAY WI
300 PM CDT TUE OCT 17 2017

WIZ005-009-010>012-018-019-172100-
NORTH CENTRAL WISCONSIN

CITY           SKY/WX    TMP DP  RH WIND       PRES   REMARKS
IRONWOOD       SUNNY     70  36  28 SW10      29.94F
MANITOWISH WTR SUNNY     67  38  34 S6        29.97F
ARBOR VITAE    SUNNY     69  42  37 S3        29.98F
EAGLE RIVER    SUNNY     66  34  29 SW8       29.98F
LAND O LAKES   SUNNY     69  32  26 W8        29.99F
RHINELANDER    CLOUDY    68  41  37 S6        29.99F
PHILLIPS       CLOUDY    68  43  40 SW7       29.97F
ANTIGO         MOSUNNY   65  44  46 SW7       30.00F
TOMAHAWK       CLOUDY    67  40  36 SW5       29.98F
MERRILL        CLOUDY    69  44  40 SW9       29.99F
$$

WIZ013-073-172100-
NORTHEAST WISCONSIN

CITY           SKY/WX    TMP DP  RH WIND       PRES   REMARKS
IRON MOUNTAIN  SUNNY     70  33  25 SW8       29.96F
MARINETTE      MOSUNNY   67  49  52 S8        29.99
OCONTO         CLOUDY    70  43  37 W7        29.99F
$$

WIZ017-030-035>037-045-172100-
CENTRAL WISCONSIN

CITY           SKY/WX    TMP DP  RH WIND       PRES   REMARKS
MEDFORD        CLOUDY    67  44  43 SW9       29.98F
WAUSAU         CLOUDY    69  44  40 S8        29.98F
MOSINEE        PTSUNNY   66  46  48 S10       30.01F
MARSHFIELD     SUNNY     70  42  36 SW13      29.99F
WISC RAPIDS    SUNNY     69  47  45 S12       30.02F
STEVENS POINT  SUNNY     67  45  44 S7        30.01F
WAUPACA        SUNNY     71  46  41 S8        30.01F
SHAWANO        SUNNY     71  44  37 SW3       29.99F
CLINTONVILLE   SUNNY     72  45  37 SW12G17   30.00F
WAUTOMA        SUNNY     70  47  43 SW8       30.02F
$$

WIZ038-039-048-051-172100-
FOX VALLEY

CITY           SKY/WX    TMP DP  RH WIND       PRES   REMARKS
NWS GREEN BAY  SUNNY     67  50  54 SW9       30.02S
APPLETON       MOSUNNY   68  43  40 SW9       30.01F
OSHKOSH        SUNNY     68  47  46 SW10      30.03F
FOND DU LAC    SUNNY     69  43  38 SW12      30.04F
$$

WIZ022-050-052-172100-
EAST CENTRAL WISCONSIN

CITY           SKY/WX    TMP DP  RH WIND       PRES   REMARKS
EPHRAIM        FAIR      63  44  51 SW7       29.99F
WASHINGTON ISL MOCLDY    60  47  64 SW7       29.99S
STURGEON BAY   MOSUNNY   66  45  46 SW6       30.01F
MANITOWOC      SUNNY     68  46  45 SW14      30.03F
SHEBOYGAN      SUNNY     69  48  47 W8        30.04F
$$

LMZ563-521-522-541>543-172100-
LAKESHORE

STATION/POSITION TIME  TEMP    WIND        PRES    VSBY  WAVE
                       AIR SEA DIR/SP/G                  HT/PER
                 (UTC) (F)     (DEG/KT/KT) (MB)    (MI)  (FT/S)
SHEBOYGAN LKSHOR 2000   63     160/  8/  9 1016.9F
KEWAUNEE LKSHORE 1942   68     260/  6/  8 1015.7F
NORTHPORT PIER   1940   63     180/  1/  5 1015.6S
N MID LAKE BUOY  1950   58 59  200/ 16/ 17 1016.3F         4/ 7
S GREEN BAY BUOY 2000   61 58  190/ 12/ 14 1015.6
MENOMINEE LKSHOR 1936   62     180/ 10/ 13 1015.3F
$$



USA.gov is the U.S. government's official web portal to all federal, state and local government web resources and services.